Location: Estes Par
(40.3770°N, 105.5210°W)
Time: 16:22:05
(UTC-06:00)

Oscar 11 - Visible Passes

Search period start: 23 March 2019 00:00
Search period end: 02 April 2019 00:00
Orbit: 614 x 624 km, 97.6° (Epoch: 22 March)

Date Brightness Start Highest point End Pass type
(mag) Time Alt. Az. Time Alt. Az. Time Alt. Az.
23 Mar 7.0 19:48:01 10° SSE 19:52:20 77° ENE 19:56:42 10° N visible
24 Mar 7.5 20:05:11 10° S 20:09:29 68° W 20:13:50 10° NNW visible
25 Mar 8.4 20:22:33 10° S 20:26:40 42° W 20:30:49 10° NNW visible
26 Mar 9.2 20:40:11 10° SSW 20:43:53 27° W 20:47:38 10° NW visible
27 Mar 9.9 20:58:11 10° SW 21:01:10 18° W 21:04:10 10° NW visible
28 Mar 10.2 21:16:59 10° WSW 21:18:29 12° W 21:19:59 10° WNW visible
29 Mar 7.1 19:54:46 10° SSE 19:59:06 87° WSW 20:03:29 10° NNW visible
30 Mar 7.9 20:12:01 10° S 20:16:16 55° W 20:20:32 10° NNW visible
31 Mar 8.8 20:29:29 10° SSW 20:33:28 35° W 20:37:28 10° NNW visible
01 Apr 9.6 20:47:16 10° SSW 20:50:43 23° W 20:54:10 10° NW visible
